QPF
0.05 0.04 0.03 0.02 0.01 0.01 0.01 0.01 0.00 0.00 0.00 0.00 0.00 0.00 0.00 0.00 0.00 0.00 0.00 0.00 0.00 0.00 0.00 0.00 0.00 0.00 0.01 0.01 0.01 0.01 0.01 0.02 0.02 0.02 0.02 0.03 0.03 0.04
0.05 0.04 0.03 0.02 0.01 0.01 0.00 0.00 0.00 0.00 0.00 0.00 0.00 0.00 0.00 0.00 0.00 0.00 0.00 0.00 0.00 0.00 0.00 0.00 0.00 0.01 0.01 0.01 0.01 0.01 0.01 0.02 0.02 0.02 0.03 0.03 0.04 0.04
0.04 0.03 0.02 0.01 0.01 0.01 0.01 0.00 0.00 0.00 0.00 0.00 0.00 0.00 0.00 0.00 0.00 0.00 0.00 0.00 0.00 0.00 0.00 0.00 0.00 0.01 0.01 0.01 0.01 0.01 0.01 0.02 0.02 0.02 0.02 0.03 0.03 0.03
0.04 0.03 0.03 0.02 0.02 0.02 0.01 0.01 0.01 0.00 0.00 0.00 0.00 0.00 0.00 0.00 0.00 0.00 0.00 0.00 0.00 0.00 0.00 0.00 0.00 0.00 0.00 0.00 0.01 0.01 0.01 0.01 0.01 0.01 0.01 0.01 0.02 0.02
0.05 0.05 0.05 0.05 0.04 0.03 0.02 0.01 0.01 0.00 0.00 0.00 0.00 0.00 0.00 0.00 0.00 0.00 0.00 0.00 0.00 0.00 0.00 0.00 0.00 0.00 0.00 0.00 0.00 0.01 0.00 0.00 0.01 0.01 0.01 0.01 0.01 0.01
0.07 0.08 0.07 0.06 0.04 0.02 0.01 0.01 0.00 0.00 0.00 0.00 0.00 0.00 0.00 0.00 0.00 0.00 0.00 0.00 0.00 0.00 0.00 0.00 0.00 0.00 0.00 0.00 0.00 0.00 0.00 0.00 0.00 0.00 0.01 0.01 0.01 0.01
0.08 0.07 0.05 0.03 0.02 0.01 0.00 0.00 0.00 0.00 0.00 0.00 0.00 0.00 0.00 0.00 0.00 0.00 0.00 0.00 0.00 0.00 0.00 0.00 0.00 0.00 0.00 0.00 0.00 0.00 0.00 0.00 0.00 0.01 0.01 0.01 0.01 0.02
0.05 0.03 0.02 0.01 0.01 0.00 0.00 0.00 0.00 0.00 0.00 0.00 0.00 0.00 0.00 0.00 0.00 0.00 0.00 0.00 0.00 0.00 0.00 0.00 0.00 0.00 0.00 0.00 0.00 0.00 0.00 0.00 0.00 0.01 0.01 0.01 0.01 0.01
0.04 0.02 0.01 0.01 0.00 0.00 0.00 0.00 0.00 0.00 0.00 0.00 0.00 0.00 0.00 0.00 0.00 0.01 0.01 0.01 0.01 0.00 0.00 0.00 0.00 0.00 0.00 0.00 0.00 0.00 0.00 0.00 0.00 0.00 0.01 0.01 0.01 0.01
0.01 0.01 0.00 0.00 0.00 0.00 0.00 0.00 0.00 0.00 0.00 0.00 0.00 0.00 0.00 0.00 0.02 0.03 0.03 0.01 0.00 0.00 0.00 0.00 0.00 0.00 0.00 0.00 0.00 0.00 0.00 0.00 0.00 0.00 0.00 0.00 0.01 0.01
0.00 0.00 0.00 0.00 0.00 0.00 0.00 0.00 0.00 0.00 0.00 0.00 0.00 0.00 0.00 0.00 0.00 0.00 0.00 0.01 0.01 0.00 0.00 0.00 0.00 0.00 0.00 0.00 0.00 0.00 0.00 0.00 0.00 0.00 0.00 0.00 0.00 0.01
0.00 0.00 0.00 0.00 0.00 0.00 0.00 0.00 0.00 0.00 0.00 0.00 0.00 0.00 0.00 0.00 0.00 0.00 0.00 0.01 0.02 0.01 0.00 0.00 0.00 0.01 0.01 0.00 0.00 0.00 0.00 0.00 0.00 0.00 0.00 0.00 0.00 0.00
0.00 0.00 0.00 0.00 0.00 0.01 0.01 0.00 0.00 0.00 0.00 0.00 0.00 0.00 0.00 0.00 0.00 0.00 0.00 0.01 0.03 0.02 0.00 0.02 0.03 0.02 0.02 0.01 0.00 0.00 0.00 0.00 0.00 0.00 0.00 0.00 0.00 0.00
0.00 0.00 0.00 0.00 0.00 0.00 0.00 0.00 0.00 0.00 0.00 0.00 0.00 0.00 0.00 0.00 0.00 0.00 0.00 0.00 0.01 0.01 0.00 0.02 0.06 0.03 0.04 0.02 0.00 0.00 0.00 0.00 0.00 0.00 0.00 0.00 0.00 0.00
0.00 0.00 0.00 0.00 0.00 0.00 0.00 0.00 0.00 0.00 0.00 0.00 0.00 0.00 0.00 0.00 0.00 0.00 0.00 0.00 0.00 0.00 0.00 0.00 0.02 0.03 0.04 0.04 0.02 0.00 0.00 0.00 0.00 0.00 0.00 0.00 0.00 0.00
0.00 0.00 0.00 0.00 0.00 0.00 0.00 0.00 0.00 0.00 0.00 0.00 0.00 0.00 0.00 0.00 0.00 0.00 0.00 0.00 0.00 0.00 0.00 0.00 0.00 0.02 0.03 0.02 0.02 0.01 0.00 0.00 0.00 0.00 0.00 0.00 0.00 0.00
0.00 0.00 0.00 0.00 0.00 0.00 0.00 0.00 0.00 0.00 0.00 0.00 0.00 0.00 0.00 0.00 0.00 0.00 0.00 0.01 0.01 0.01 0.00 0.00 0.00 0.00 0.01 0.02 0.02 0.01 0.00 0.00 0.00 0.00 0.00 0.01 0.00 0.00
0.00 0.00 0.00 0.00 0.00 0.00 0.00 0.00 0.00 0.00 0.00 0.01 0.01 0.01 0.01 0.01 0.01 0.00 0.00 0.01 0.01 0.01 0.00 0.00 0.00 0.01 0.01 0.00 0.00 0.00 0.00 0.00 0.00 0.00 0.01 0.02 0.01 0.00
0.00 0.00 0.00 0.00 0.00 0.00 0.00 0.00 0.00 0.00 0.00 0.01 0.01 0.01 0.01 0.01 0.01 0.01 0.01 0.01 0.01 0.00 0.00 0.00 0.02 0.05 0.05 0.01 0.00 0.00 0.01 0.02 0.02 0.01 0.00 0.01 0.01 0.00
0.00 0.00 0.00 0.00 0.00 0.00 0.00 0.00 0.00 0.00 0.00 0.01 0.01 0.01 0.01 0.02 0.01 0.01 0.01 0.01 0.02 0.01 0.00 0.00 0.01 0.06 0.10 0.07 0.03 0.00 0.01 0.04 0.07 0.05 0.01 0.00 0.00 0.00
0.00 0.00 0.00 0.00 0.00 0.01 0.01 0.01 0.01 0.01 0.01 0.01 0.01 0.01 0.01 0.02 0.02 0.01 0.01 0.01 0.01 0.02 0.01 0.00 0.00 0.02 0.06 0.07 0.04 0.01 0.00 0.01 0.05 0.11 0.10 0.07 0.03 0.01
0.00 0.00 0.00 0.00 0.01 0.01 0.01 0.01 0.01 0.00 0.01 0.01 0.01 0.01 0.01 0.02 0.02 0.02 0.02 0.02 0.02 0.01 0.01 0.01 0.00 0.01 0.04 0.07 0.05 0.02 0.00 0.00 0.00 0.01 0.05 0.09 0.12 0.07
0.00 0.00 0.00 0.00 0.01 0.01 0.01 0.01 0.01 0.01 0.01 0.02 0.02 0.02 0.02 0.02 0.02 0.02 0.02 0.02 0.02 0.02 0.01 0.01 0.00 0.00 0.02 0.04 0.05 0.03 0.02 0.01 0.00 0.00 0.00 0.00 0.01 0.02
MSLP
1018.84 1019.52 1020.17 1020.75 1021.27 1021.73 1022.13 1022.49 1022.81 1023.11 1023.38 1023.61 1023.78 1023.88 1023.88 1023.78 1023.58 1023.28 1022.91 1022.49 1022.04 1021.59 1021.15 1020.72 1020.31 1019.90 1019.49 1019.08 1018.65 1018.22 1017.80 1017.39 1017.00 1016.65 1016.32 1016.03 1015.75 1015.47
1019.09 1019.75 1020.36 1020.90 1021.38 1021.78 1022.14 1022.45 1022.74 1023.02 1023.27 1023.48 1023.65 1023.73 1023.72 1023.60 1023.37 1023.05 1022.64 1022.18 1021.69 1021.20 1020.73 1020.28 1019.85 1019.42 1019.00 1018.57 1018.14 1017.69 1017.25 1016.81 1016.40 1016.02 1015.67 1015.34 1015.04 1014.74
1019.43 1020.06 1020.62 1021.11 1021.53 1021.88 1022.18 1022.45 1022.70 1022.93 1023.16 1023.35 1023.49 1023.56 1023.52 1023.38 1023.12 1022.75 1022.30 1021.80 1021.27 1020.73 1020.22 1019.73 1019.27 1018.82 1018.38 1017.94 1017.49 1017.03 1016.58 1016.14 1015.71 1015.32 1014.96 1014.62 1014.30 1013.99
1019.82 1020.41 1020.92 1021.35 1021.71 1022.00 1022.24 1022.45 1022.65 1022.84 1023.02 1023.18 1023.29 1023.32 1023.25 1023.07 1022.78 1022.37 1021.88 1021.33 1020.76 1020.18 1019.63 1019.10 1018.60 1018.13 1017.66 1017.20 1016.74 1016.27 1015.81 1015.37 1014.95 1014.55 1014.19 1013.86 1013.55 1013.25
1020.23 1020.77 1021.23 1021.60 1021.89 1022.11 1022.29 1022.43 1022.57 1022.71 1022.84 1022.94 1023.00 1022.99 1022.88 1022.66 1022.33 1021.89 1021.37 1020.78 1020.18 1019.57 1018.98 1018.42 1017.89 1017.38 1016.89 1016.40 1015.92 1015.45 1014.98 1014.53 1014.11 1013.73 1013.38 1013.06 1012.76 1012.47
1020.63 1021.12 1021.51 1021.82 1022.04 1022.19 1022.29 1022.37 1022.44 1022.50 1022.56 1022.61 1022.61 1022.54 1022.39 1022.13 1021.77 1021.31 1020.77 1020.17 1019.55 1018.92 1018.31 1017.73 1017.17 1016.63 1016.11 1015.60 1015.09 1014.59 1014.11 1013.66 1013.24 1012.85 1012.51 1012.20 1011.92 1011.65
1021.00 1021.42 1021.74 1021.97 1022.11 1022.19 1022.22 1022.22 1022.21 1022.20 1022.19 1022.16 1022.10 1021.98 1021.78 1021.50 1021.12 1020.66 1020.12 1019.53 1018.92 1018.30 1017.68 1017.09 1016.51 1015.94 1015.39 1014.84 1014.29 1013.76 1013.25 1012.76 1012.32 1011.93 1011.58 1011.28 1011.00 1010.74
1021.30 1021.64 1021.88 1022.02 1022.09 1022.08 1022.03 1021.96 1021.88 1021.80 1021.71 1021.62 1021.50 1021.33 1021.11 1020.81 1020.43 1019.98 1019.47 1018.91 1018.32 1017.73 1017.13 1016.53 1015.94 1015.35 1014.75 1014.15 1013.56 1012.97 1012.41 1011.88 1011.40 1010.97 1010.60 1010.28 1010.00 1009.74
1021.50 1021.75 1021.89 1021.96 1021.94 1021.86 1021.74 1021.60 1021.46 1021.31 1021.16 1021.02 1020.85 1020.65 1020.41 1020.11 1019.75 1019.33 1018.86 1018.35 1017.80 1017.24 1016.67 1016.08 1015.47 1014.85 1014.21 1013.56 1012.90 1012.24 1011.61 1011.02 1010.48 1010.01 1009.60 1009.24 1008.94 1008.66
1021.58 1021.73 1021.78 1021.77 1021.68 1021.54 1021.36 1021.17 1020.97 1020.78 1020.60 1020.41 1020.22 1020.00 1019.76 1019.47 1019.13 1018.75 1018.33 1017.86 1017.37 1016.84 1016.29 1015.71 1015.09 1014.44 1013.75 1013.04 1012.31 1011.58 1010.88 1010.21 1009.61 1009.07 1008.61 1008.21 1007.87 1007.57
1021.54 1021.59 1021.57 1021.48 1021.34 1021.15 1020.94 1020.72 1020.50 1020.28 1020.07 1019.87 1019.66 1019.44 1019.20 1018.92 1018.61 1018.27 1017.88 1017.46 1017.00 1016.50 1015.97 1015.38 1014.75 1014.07 1013.34 1012.57 1011.77 1010.98 1010.20 1009.47 1008.79 1008.20 1007.68 1007.24 1006.86 1006.53
1021.40 1021.37 1021.29 1021.15 1020.97 1020.76 1020.54 1020.31 1020.08 1019.86 1019.65 1019.44 1019.23 1019.00 1018.76 1018.50 1018.20 1017.87 1017.50 1017.10 1016.66 1016.18 1015.64 1015.05 1014.39 1013.68 1012.91 1012.09 1011.25 1010.39 1009.56 1008.78 1008.05 1007.40 1006.84 1006.36 1005.95 1005.59
1021.21 1021.12 1021.00 1020.83 1020.65 1020.44 1020.22 1020.00 1019.78 1019.57 1019.36 1019.15 1018.93 1018.70 1018.45 1018.17 1017.87 1017.53 1017.16 1016.75 1016.30 1015.80 1015.24 1014.63 1013.96 1013.21 1012.41 1011.57 1010.69 1009.81 1008.94 1008.12 1007.37 1006.69 1006.09 1005.58 1005.15 1004.77
1021.01 1020.90 1020.76 1020.59 1020.41 1020.22 1020.02 1019.82 1019.62 1019.41 1019.21 1018.99 1018.76 1018.50 1018.22 1017.91 1017.57 1017.20 1016.78 1016.34 1015.85 1015.32 1014.73 1014.09 1013.39 1012.62 1011.80 1010.94 1010.06 1009.17 1008.29 1007.46 1006.70 1006.00 1005.39 1004.86 1004.41 1004.01
1020.87 1020.75 1020.61 1020.46 1020.29 1020.12 1019.95 1019.77 1019.58 1019.38 1019.17 1018.93 1018.67 1018.37 1018.04 1017.67 1017.26 1016.82 1016.34 1015.83 1015.28 1014.69 1014.06 1013.39 1012.66 1011.88 1011.05 1010.19 1009.31 1008.43 1007.57 1006.75 1005.99 1005.29 1004.67 1004.12 1003.65 1003.23
1020.81 1020.70 1020.57 1020.44 1020.30 1020.15 1019.99 1019.82 1019.63 1019.42 1019.19 1018.91 1018.60 1018.24 1017.83 1017.38 1016.89 1016.36 1015.79 1015.20 1014.58 1013.92 1013.24 1012.52 1011.77 1010.98 1010.16 1009.31 1008.44 1007.58 1006.74 1005.93 1005.17 1004.47 1003.83 1003.27 1002.77 1002.32
1020.85 1020.75 1020.64 1020.52 1020.39 1020.25 1020.10 1019.92 1019.72 1019.48 1019.20 1018.87 1018.49 1018.05 1017.56 1017.01 1016.42 1015.79 1015.13 1014.44 1013.74 1013.02 1012.28 1011.52 1010.75 1009.95 1009.13 1008.29 1007.44 1006.60 1005.76 1004.96 1004.19 1003.48 1002.82 1002.22 1001.68 1001.20
1020.96 1020.87 1020.76 1020.65 1020.52 1020.37 1020.20 1020.00 1019.76 1019.48 1019.14 1018.74 1018.28 1017.76 1017.17 1016.53 1015.83 1015.11 1014.35 1013.58 1012.80 1012.01 1011.23 1010.44 1009.64 1008.84 1008.02 1007.18 1006.34 1005.50 1004.66 1003.85 1003.06 1002.30 1001.60 1000.95 1000.35 999.82
1021.11 1021.01 1020.89 1020.76 1020.62 1020.44 1020.24 1020.00 1019.71 1019.37 1018.96 1018.50 1017.95 1017.34 1016.67 1015.93 1015.15 1014.33 1013.49 1012.65 1011.81 1010.97 1010.15 1009.33 1008.52 1007.70 1006.88 1006.04 1005.20 1004.34 1003.49 1002.64 1001.80 1001.00 1000.23 999.51 998.85 998.24
1021.24 1021.12 1020.98 1020.82 1020.63 1020.42 1020.17 1019.87 1019.53 1019.12 1018.65 1018.11 1017.49 1016.80 1016.05 1015.24 1014.38 1013.49 1012.60 1011.70 1010.81 1009.94 1009.09 1008.25 1007.43 1006.61 1005.78 1004.94 1004.08 1003.20 1002.31 1001.42 1000.53 999.65 998.81 998.02 997.28 996.60
1021.31 1021.15 1020.97 1020.77 1020.53 1020.27 1019.96 1019.61 1019.20 1018.73 1018.20 1017.59 1016.91 1016.16 1015.34 1014.47 1013.56 1012.63 1011.69 1010.76 1009.84 1008.96 1008.09 1007.26 1006.43 1005.61 1004.77 1003.92 1003.05 1002.15 1001.22 1000.28 999.33 998.39 997.47 996.60 995.79 995.05
1021.29 1021.08 1020.85 1020.59 1020.30 1019.98 1019.61 1019.20 1018.74 1018.21 1017.62 1016.95 1016.22 1015.42 1014.56 1013.65 1012.71 1011.75 1010.79 1009.85 1008.93 1008.05 1007.19 1006.36 1005.55 1004.73 1003.91 1003.05 1002.17 1001.25 1000.30 999.31 998.32 997.32 996.34 995.41 994.54 993.74
1021.16 1020.89 1020.60 1020.29 1019.94 1019.56 1019.14 1018.67 1018.15 1017.57 1016.93 1016.22 1015.45 1014.61 1013.72 1012.80 1011.84 1010.88 1009.92 1008.99 1008.09 1007.22 1006.39 1005.58 1004.79 1004.00 1003.19 1002.35 1001.47 1000.55 999.58 998.57 997.55 996.51 995.50 994.52 993.61 992.77
Thickness
5548 5543 5537 5531 5526 5522 5516 5510 5502 5495 5492 5488 5484 5480 5475 5471 5467 5464 5461 5457 5456 5455 5453 5452 5451 5450 5449 5448 5448 5447 5447 5446 5445 5445 5444 5444 5444 5444
5535 5530 5525 5519 5513 5508 5503 5497 5491 5485 5479 5476 5472 5467 5463 5458 5454 5451 5447 5444 5441 5439 5438 5436 5435 5433 5432 5431 5430 5429 5428 5426 5425 5424 5423 5422 5422 5421
5522 5517 5511 5507 5502 5495 5489 5483 5477 5471 5467 5464 5458 5454 5449 5444 5441 5436 5432 5429 5426 5422 5420 5419 5417 5416 5414 5412 5410 5408 5406 5404 5403 5401 5399 5398 5397 5396
5509 5504 5497 5493 5488 5482 5476 5470 5464 5458 5452 5449 5444 5438 5434 5429 5425 5421 5417 5413 5409 5405 5403 5400 5398 5396 5393 5390 5388 5385 5383 5380 5378 5375 5374 5373 5372 5371
5496 5491 5485 5480 5475 5469 5463 5457 5451 5446 5439 5433 5429 5423 5418 5413 5409 5405 5401 5396 5390 5386 5383 5380 5377 5373 5370 5367 5364 5361 5358 5355 5353 5352 5351 5351 5350 5350
5483 5478 5473 5469 5463 5457 5451 5444 5438 5432 5425 5419 5414 5409 5402 5397 5390 5387 5386 5379 5373 5366 5362 5358 5354 5350 5345 5342 5340 5337 5335 5334 5333 5334 5334 5335 5335 5336
5470 5465 5462 5458 5452 5447 5441 5433 5426 5419 5411 5405 5400 5394 5387 5380 5373 5369 5366 5363 5356 5347 5344 5337 5331 5328 5323 5320 5318 5317 5317 5317 5319 5320 5322 5323 5324 5325
5458 5454 5450 5445 5440 5435 5429 5423 5416 5408 5399 5392 5387 5379 5373 5364 5359 5352 5346 5343 5340 5330 5323 5321 5311 5312 5308 5305 5302 5302 5303 5305 5307 5309 5311 5313 5314 5315
5447 5443 5438 5432 5426 5420 5415 5409 5401 5393 5387 5381 5373 5364 5357 5350 5343 5337 5329 5323 5318 5309 5304 5310 5302 5300 5297 5293 5291 5291 5292 5294 5296 5299 5301 5303 5304 5306
5436 5430 5424 5419 5414 5410 5404 5396 5388 5379 5373 5366 5358 5350 5342 5335 5327 5321 5314 5309 5303 5294 5287 5293 5295 5292 5291 5286 5281 5281 5282 5284 5286 5289 5291 5293 5294 5296
5425 5419 5414 5408 5404 5400 5394 5385 5377 5368 5359 5351 5343 5336 5328 5320 5313 5306 5298 5292 5292 5288 5278 5277 5283 5283 5284 5281 5276 5271 5271 5272 5275 5278 5281 5284 5286 5288
5414 5408 5403 5398 5394 5389 5381 5373 5364 5355 5346 5337 5328 5319 5312 5305 5299 5292 5284 5277 5275 5278 5274 5269 5268 5264 5274 5278 5271 5264 5261 5262 5265 5270 5273 5276 5278 5280
5403 5397 5391 5387 5382 5376 5369 5359 5350 5344 5334 5322 5314 5308 5302 5296 5289 5282 5275 5268 5265 5264 5264 5258 5258 5253 5250 5261 5265 5260 5257 5259 5261 5264 5267 5270 5272 5275
5393 5387 5381 5377 5371 5363 5353 5345 5338 5329 5317 5309 5303 5297 5292 5287 5282 5276 5270 5264 5259 5257 5256 5250 5248 5246 5244 5247 5253 5258 5256 5255 5258 5262 5265 5267 5269 5272
5383 5377 5371 5364 5356 5346 5337 5331 5322 5311 5304 5298 5293 5289 5284 5280 5277 5273 5269 5264 5260 5256 5253 5249 5244 5243 5239 5240 5245 5251 5254 5258 5259 5262 5264 5265 5267 5270
5370 5364 5357 5348 5339 5331 5323 5315 5307 5300 5294 5289 5285 5282 5279 5276 5273 5269 5265 5261 5260 5261 5256 5250 5246 5242 5241 5241 5242 5249 5253 5255 5262 5262 5264 5267 5270 5273
5359 5349 5341 5332 5324 5317 5311 5304 5298 5292 5287 5282 5279 5277 5275 5272 5269 5265 5261 5257 5255 5257 5259 5256 5250 5247 5245 5243 5247 5254 5258 5262 5265 5266 5268 5273 5277 5279
5345 5334 5325 5317 5310 5305 5300 5295 5290 5285 5281 5277 5274 5272 5270 5268 5266 5263 5259 5256 5255 5256 5256 5257 5256 5256 5256 5258 5257 5259 5264 5267 5271 5271 5272 5277 5285 5288
5329 5320 5313 5306 5301 5296 5290 5285 5282 5279 5275 5272 5270 5269 5267 5265 5263 5262 5260 5258 5258 5258 5258 5257 5256 5256 5259 5266 5271 5268 5267 5272 5275 5277 5279 5282 5288 5294
5317 5309 5302 5297 5292 5288 5283 5279 5276 5274 5272 5270 5268 5266 5264 5262 5261 5261 5260 5259 5260 5261 5262 5262 5259 5258 5258 5263 5270 5275 5273 5273 5277 5281 5286 5289 5293 5298
5305 5299 5294 5289 5285 5280 5277 5274 5271 5270 5269 5267 5266 5265 5263 5261 5261 5261 5261 5262 5262 5262 5263 5266 5265 5264 5263 5265 5270 5279 5283 5281 5279 5282 5287 5292 5297 5301
5295 5290 5286 5282 5278 5275 5272 5270 5268 5268 5267 5266 5265 5265 5264 5262 5262 5262 5262 5263 5263 5264 5265 5268 5269 5269 5268 5268 5272 5278 5284 5288 5289 5289 5290 5293 5295 5301
5287 5283 5279 5276 5273 5270 5269 5267 5266 5266 5266 5265 5265 5265 5265 5264 5264 5264 5264 5265 5266 5267 5269 5271 5273 5273 5272 5272 5273 5277 5281 5286 5291 5294 5298 5300 5301 5302